星链-3757 (STARLINK-3757 )

导读 | 豆包AI

STARLINK-3757是美国太空探索技术公司(SpaceX)Starlink星链星座的成员卫星,由美国于2022年5月13日发射入轨,属于星链项目第二批组网卫星。星链项目旨在构建全球卫星互联网星座,该卫星主要为全球偏远地区、海洋上空等区域提供低延迟宽带互联网接入服务,依托近地轨道部署保障通信传输效率。

基本信息
目录编号:
52539
目录名称:
STARLINK-3757
国际标识:
2022-051G
轨道中心:
EARTH
卫星名称:
星链-3757
卫星全名:
星链-3757 (STARLINK-3757 )
卫星状态:
在轨 (已飞行1448 天)
发射日期:
2022-05-13 UTC
国别 :
美国 (US)
星等 :
--
轨道信息
数据来源 国际轨道数据
星历时间: 2026-04-30T21:33:38+0800
9小时前
查看轨道信息
半长轴: 6917.889km
偏心率: 0.0001295
轨道倾角: 53.217°
近地点辐角 87.441°
升交点赤经 256.241°
平近点角 272.673°
近地点: 538.856km
远地点: 540.648km
周期: 95.438分钟
每日圈数: 15.088372
详细信息
固有亮度:
5
最大亮度:
2.5
卫星平台:
Starlink v1.5
覆盖范围:
全球
运营商:
太空探索技术公司
运营商所在国:
美国
制造商(研发单位):
太空探索技术公司
制造商所在国:
美国
使用方式:
暂无
卫星简介
星链(Starlink)计划是由太空探索技术公司(SpaceX)提出的一个巨型低轨卫星互联网星座项目,计划在2019年至2024年间在太空搭建由约1.2万颗卫星组成的“星链”网络,其中1584颗将部署在地球上空550千米处的近地轨道,并从2020年开始工作。该卫星仍在工作。
2D轨道图
3D轨道图
轨道高度分析图
轨道倾角分析图
轨道综合分析图
查看轨道综合分析图